User: anonymous   Login
Location: Ostrava
(49.8330°N, 18.2830°E)
Time: 13:59:23
(UTC+02:00)
Language:

NOAA 19 - Orbit

View from above orbital plane
View from above orbital plane
View from above satellite
View from above satellite

Ground track
Ground track

The orbit data is extracted from the following two-line orbital elements,

1 33591U 09005A   17232.88500199 +.00000060 +00000-0 +57672-4 0  9997
2 33591 099.0986 200.6497 0015071 090.1435 270.1462 14.12203636439521
Epoch (UTC): 20 August 2017 21:14:24
Eccentricity: 0.0015071
inclination: 99.0986°
perigee height: 841 km
apogee height: 863 km
right ascension of ascending node: 200.6497°
argument of perigee: 90.1435°
revolutions per day: 14.12203636
mean anomaly at epoch: 270.1462°
orbit number at epoch: 43952

The dashed part of the orbit path shows where the satellite is in the earth's shadow,  

DLR